Weather reports worldwide

Advertisment
Sennybridge, United Kingdom (3507): temperature & dewpoint: 15.01.2020 05:00:00 - 21.01.2020 05:00:00 (GMT)Sennybridge, United Kingdom (3507): temperature -20cm & temperature -100cm: 15.01.2020 05:00:00 - 21.01.2020 05:00:00 (GMT)Sennybridge, United Kingdom (3507): wind speed & gusts: 15.01.2020 05:00:00 - 21.01.2020 05:00:00 (GMT)Sennybridge, United Kingdom (3507): wind direction: 15.01.2020 05:00:00 - 21.01.2020 05:00:00 (GMT)Sennybridge, United Kingdom (3507): reduced air pressure: 15.01.2020 05:00:00 - 21.01.2020 05:00:00 (GMT)Sennybridge, United Kingdom (3507): visibility: 15.01.2020 05:00:00 - 21.01.2020 05:00:00 (GMT)Sennybridge, United Kingdom (3507): precipitation: 15.01.2020 05:00:00 - 21.01.2020 05:00:00 (GMT)
Date & Time tt [°C] td [°C] tt -20cm [°C] tt -100cm [°C] ff [km/h] ff [kn] fx [km/h] fx [kn] dd ppp [hPa] vv [km] rr [mm]
21.01.2020 05:00:00 -0,9 -1,0 - - 4 2 - - SSE 1044,0 18 0,0
21.01.2020 04:00:00 0,3 0,2 - - 4 2 - - S 1043,8 16 0,0
21.01.2020 03:00:00 -0,2 -0,3 - - 0 0 - - N 1044,3 26 0,0
21.01.2020 02:00:00 1,7 1,6 - - 2 1 - - ENE 1044,3 30 0,0
21.01.2020 01:00:00 1,7 1,7 - - 2 1 - - SSW 1045,1 21 0,0
21.01.2020 00:00:00 1,1 1,0 - - 2 1 - - WSW 1045,7 17 0,0
20.01.2020 23:00:00 1,3 1,3 - - 4 2 - - SSW 1046,2 13 0,0
20.01.2020 22:00:00 1,9 1,9 - - 5 3 - - SW 1046,5 14 0,0
20.01.2020 21:00:00 0,7 0,7 - - 4 2 - - S 1047,1 0,3 0,0
20.01.2020 20:00:00 1,4 1,4 - - 5 3 - - SW 1047,4 7 0,0
20.01.2020 19:00:00 1,6 1,5 - - 5 3 - - WSW 1047,5 5 0,0
20.01.2020 18:00:00 1,9 1,9 - - 5 3 - - SSW 1047,5 5 0,0
20.01.2020 17:00:00 2,3 2,2 - - 9 5 - - SSW 1047,5 0,2 0,0
20.01.2020 16:00:00 2,1 2,0 - - 5 3 - - SW 1047,4 1,8 0,0
20.01.2020 15:00:00 3,1 3,0 - - 9 5 - - SW 1047,7 1,6 0,0
20.01.2020 14:00:00 3,1 3,0 - - 5 3 - - W 1048,0 7 0,0
20.01.2020 13:00:00 3,6 3,6 - - 8 4 - - W 1048,8 19 0,0
20.01.2020 12:00:00 3,1 3,1 - - 8 4 - - SW 1049,3 11 0,0
20.01.2020 11:00:00 2,0 2,0 - - 8 4 - - SW 1049,9 0,1 0,2
20.01.2020 10:00:00 1,6 1,6 - - 9 5 - - SSW 1049,8 0,6 0,0
20.01.2020 09:00:00 0,7 0,7 5,2 7,2 5 3 - - SW 1049,9 0,1 0,0
20.01.2020 08:00:00 0,9 0,9 - - 5 3 - - S 1049,7 0,1 0,0
20.01.2020 07:00:00 0,8 0,8 - - 8 4 - - SSE 1049,4 1,1 0,0
20.01.2020 06:00:00 0,5 0,5 - - 8 4 - - S 1049,5 0,2 0,0
20.01.2020 05:00:00 0,4 0,3 - - 8 4 - - SSW 1049,8 0,1 0,0
20.01.2020 04:00:00 0,4 0,2 - - 9 5 - - SSW 1049,8 5 0,0
20.01.2020 03:00:00 -0,4 -1,1 - - 5 3 - - S 1050,0 29 0,0
20.01.2020 02:00:00 -0,6 -1,8 - - 4 2 - - S 1050,4 29 0,0
20.01.2020 01:00:00 0,1 -1,2 - - 5 3 - - S 1050,2 40 0,0
20.01.2020 00:00:00 -0,6 -2,1 - - 5 3 - - S 1050,3 45 0,0
19.01.2020 23:00:00 0,4 -1,1 - - 5 3 - - S 1049,9 30 0,0
19.01.2020 22:00:00 1,8 0,5 - - 8 4 - - S 1049,4 35 0,0
19.01.2020 21:00:00 -0,6 -1,5 - - 8 4 - - SSW 1050,1 28 0,0
19.01.2020 20:00:00 0,0 -0,8 - - 4 2 - - SSE 1050,2 35 0,0
19.01.2020 19:00:00 0,0 -1,7 - - 5 3 - - S 1049,5 40 0,0
19.01.2020 18:00:00 0,1 -1,0 - - 8 4 - - SSE 1049,1 35 0,0
19.01.2020 17:00:00 0,9 -0,8 - - 5 3 - - S 1048,7 45 0,0
19.01.2020 16:00:00 3,7 0,3 - - 5 3 - - SW 1047,8 45 0,0
19.01.2020 15:00:00 5,5 0,2 - - 4 2 - - W 1047,3 35 0,0
19.01.2020 14:00:00 4,8 1,5 - - 2 1 - - NNW 1046,9 35 0,0
19.01.2020 13:00:00 2,9 0,8 - - 4 2 - - NNE 1047,0 26 0,0
19.01.2020 12:00:00 3,0 1,1 - - 2 1 - - N 1047,1 20 0,2
19.01.2020 11:00:00 0,7 -0,3 - - 2 1 - - NNW 1047,6 15 0,0
19.01.2020 10:00:00 -0,1 -0,3 - - 0 0 - - N 1046,9 20 0,0
19.01.2020 09:00:00 -3,1 -3,3 5,9 7,4 2 1 - - NNW 1046,6 25 0,0
19.01.2020 08:00:00 -4,1 -4,4 - - 2 1 - - N 1045,8 24 0,0
19.01.2020 07:00:00 -4,8 -5,4 - - 0 0 - - N 1045,0 35 0,0
19.01.2020 06:00:00 -4,1 -4,6 - - 0 0 - - N 1043,8 26 0,0
19.01.2020 05:00:00 -2,8 -3,2 - - 2 1 - - W 1043,0 20 0,0
19.01.2020 04:00:00 -1,4 -1,8 - - 4 2 - - W 1041,8 25 0,0
19.01.2020 03:00:00 -1,4 -1,8 - - 2 1 - - NNE 1041,8 40 0,0
19.01.2020 02:00:00 -1,1 -1,3 - - 0 0 - - N 1041,2 26 0,0
19.01.2020 01:00:00 -1,6 -2,0 - - 2 1 - - NNE 1040,5 30 0,0
19.01.2020 00:00:00 -1,8 -2,4 - - 2 1 - - SE 1039,7 30 0,0
18.01.2020 23:00:00 -1,1 -2,0 - - 5 3 - - ESE 1038,4 35 0,0
18.01.2020 22:00:00 -2,1 -3,0 - - 2 1 - - NNW 1037,8 45 0,0
18.01.2020 21:00:00 -1,7 -2,5 - - 2 1 - - ENE 1037,2 45 0,0
18.01.2020 20:00:00 -1,0 -1,6 - - 2 1 - - ESE 1036,4 35 0,0
18.01.2020 19:00:00 -0,9 -1,8 - - 2 1 - - E 1035,6 30 0,0
18.01.2020 18:00:00 0,5 -1,0 - - 2 1 - - NNW 1034,0 19 0,0
18.01.2020 17:00:00 1,8 -0,2 - - 4 2 - - NNE 1032,8 22 0,0
18.01.2020 16:00:00 4,3 0,9 - - 4 2 - - N 1031,8 35 0,0
18.01.2020 15:00:00 5,0 0,7 - - 5 3 - - N 1031,0 26 0,0
18.01.2020 14:00:00 4,9 0,9 - - 5 3 - - N 1030,4 18 0,0
18.01.2020 13:00:00 5,3 1,1 - - 4 2 - - NW 1030,1 26 0,0
18.01.2020 12:00:00 4,2 2,4 - - 5 3 - - SW 1029,5 23 0,2
18.01.2020 11:00:00 3,0 1,6 - - 5 3 - - S 1029,0 19 0,0
18.01.2020 10:00:00 1,5 0,8 - - 5 3 - - S 1028,6 26 0,0
18.01.2020 09:00:00 -1,9 -2,3 6,7 7,4 2 1 - - S 1028,2 16 0,0
18.01.2020 08:00:00 -1,4 -1,8 - - 4 2 - - SSE 1027,4 14 0,0
18.01.2020 07:00:00 -0,9 -1,2 - - 8 4 - - SSE 1027,0 13 0,0
18.01.2020 06:00:00 -0,4 -0,7 - - 5 3 - - SSW 1026,3 13 0,0
18.01.2020 05:00:00 -0,2 -0,6 - - 5 3 - - SW 1025,3 11 0,0
18.01.2020 04:00:00 0,9 0,0 - - 4 2 - - SW 1024,2 16 0,0
18.01.2020 03:00:00 1,8 1,5 - - 5 3 - - SSE 1023,8 16 0,0
18.01.2020 02:00:00 1,4 1,2 - - 5 3 - - SSW 1023,6 9 0,0
18.01.2020 01:00:00 1,7 1,4 - - 5 3 - - WSW 1022,9 12 0,0
18.01.2020 00:00:00 2,2 1,7 - - 5 3 - - SSW 1022,1 17 0,0
17.01.2020 23:00:00 2,7 2,2 - - 5 3 - - SW 1021,1 26 0,0
17.01.2020 22:00:00 2,4 2,1 - - 9 5 - - SW 1020,0 26 0,0
17.01.2020 21:00:00 1,8 1,4 - - 9 5 - - SSW 1018,6 3,6 0,2
17.01.2020 20:00:00 1,1 0,6 - - 9 5 - - SSW 1017,9 50 0,0
17.01.2020 19:00:00 1,1 0,5 - - 8 4 - - SSW 1017,1 45 0,0
17.01.2020 18:00:00 1,4 0,8 - - 11 6 - - SW 1016,2 50 0,0
17.01.2020 17:00:00 2,3 1,3 - - 11 6 - - SW 1015,5 45 0,0
17.01.2020 16:00:00 2,8 1,3 - - 15 8 - - SW 1014,7 50 0,2
17.01.2020 15:00:00 4,1 2,5 - - 21 11 - - SW 1013,7 27 1,2
17.01.2020 14:00:00 4,6 2,7 - - 15 8 - - W 1013,3 7 0,2
17.01.2020 13:00:00 3,6 2,3 - - 15 8 - - SW 1013,1 40 0,2
17.01.2020 12:00:00 3,0 2,3 - - 15 8 - - WSW 1012,7 35 0,0
17.01.2020 11:00:00 2,3 1,7 - - 11 6 - - WSW 1012,0 45 0,0
17.01.2020 10:00:00 1,8 1,0 - - 5 3 - - NW 1011,0 12 0,6
17.01.2020 09:00:00 2,3 1,4 7,0 7,4 8 4 - - W 1009,2 6 0,0
17.01.2020 08:00:00 4,4 4,1 - - 16 9 - - WSW 1006,3 4,5 0,2
17.01.2020 07:00:00 4,4 3,4 - - 16 9 - - SSW 1005,2 50 2,0
17.01.2020 06:00:00 4,9 4,6 - - 11 6 - - SSW 1004,9 40 0,4
17.01.2020 05:00:00 5,1 4,3 - - 21 11 - - SW 1004,9 8 1,2
17.01.2020 04:00:00 6,4 4,9 - - 18 10 - - SSW 1004,8 35 0,0
17.01.2020 03:00:00 6,7 5,7 - - 21 11 - - SSW 1005,1 15 0,4
17.01.2020 02:00:00 6,9 5,9 - - 18 10 - - SSW 1005,4 9 0,0
17.01.2020 01:00:00 6,9 5,5 - - 21 11 - - SW 1006,0 17 0,0
17.01.2020 00:00:00 7,1 5,9 - - 22 12 - - SSW 1005,9 16 0,0
16.01.2020 23:00:00 6,9 5,7 - - 16 9 - - SSW 1006,3 17 0,0
16.01.2020 22:00:00 6,4 5,3 - - 18 10 - - SSW 1006,6 13 0,0
16.01.2020 21:00:00 6,8 6,2 - - 21 11 - - SW 1006,2 8 0,0
16.01.2020 20:00:00 7,1 6,3 - - 26 14 50 27 SW 1005,7 9 0,4
16.01.2020 19:00:00 7,7 7,0 - - 31 17 57 31 SW 1004,7 12 0,6
16.01.2020 18:00:00 8,6 7,7 - - 39 21 65 35 SW 1003,1 12 0,4
16.01.2020 17:00:00 9,3 8,4 - - 44 24 68 37 SW 1002,1 15 0,8
16.01.2020 16:00:00 9,6 9,1 - - 29 16 52 28 S 1000,6 7 1,4
16.01.2020 15:00:00 9,7 8,4 - - 29 16 59 32 S 1001,3 6 1,0
16.01.2020 14:00:00 9,6 8,4 - - 39 21 72 39 S 1002,0 24 0,4
16.01.2020 13:00:00 8,5 7,9 - - 37 20 63 34 S 1002,4 18 2,4
16.01.2020 12:00:00 8,1 7,3 - - 41 22 74 40 S 1004,9 5 1,8
16.01.2020 11:00:00 7,7 6,6 - - 46 25 67 36 S 1005,8 16 0,2
16.01.2020 10:00:00 7,3 5,2 - - 42 23 61 33 S 1007,6 22 0,0
16.01.2020 09:00:00 6,5 4,2 6,7 7,5 34 18 52 28 S 1009,4 29 0,0
16.01.2020 08:00:00 6,4 3,1 - - 22 12 46 25 S 1010,7 40 0,0
16.01.2020 07:00:00 6,5 4,0 - - 21 11 - - S 1011,3 25 0,0
16.01.2020 06:00:00 6,4 4,4 - - 29 16 - - S 1012,0 23 0,0
16.01.2020 05:00:00 6,7 4,1 - - 28 15 46 25 S 1012,4 29 0,0
16.01.2020 04:00:00 6,7 4,6 - - 28 15 48 26 S 1013,6 17 0,0
16.01.2020 03:00:00 6,7 4,5 - - 26 14 48 26 S 1014,0 21 0,0
16.01.2020 02:00:00 6,0 4,2 - - 28 15 46 25 SSW 1014,3 20 0,0
16.01.2020 01:00:00 5,7 4,2 - - 34 18 48 26 SSW 1014,4 17 0,0
16.01.2020 00:00:00 5,8 4,4 - - 29 16 - - SSW 1014,5 16 0,2
15.01.2020 23:00:00 5,6 4,4 - - 24 13 - - SSW 1014,1 12 0,0
15.01.2020 22:00:00 5,7 4,5 - - 28 15 - - SW 1013,7 13 0,0
15.01.2020 21:00:00 5,1 3,5 - - 26 14 - - SW 1013,4 27 0,4
15.01.2020 20:00:00 5,1 3,9 - - 28 15 - - SW 1012,8 4,8 1,6
15.01.2020 19:00:00 4,9 3,9 - - 24 13 - - SW 1012,1 9 0,2
15.01.2020 18:00:00 5,1 3,7 - - 26 14 48 26 SW 1011,1 14 0,0
15.01.2020 17:00:00 4,9 3,5 - - 26 14 54 29 SW 1010,0 18 0,6
15.01.2020 16:00:00 5,6 3,2 - - 34 18 48 26 SW 1008,6 17 0,0
15.01.2020 15:00:00 5,9 3,2 - - 28 15 48 26 WSW 1007,4 20 0,0
15.01.2020 14:00:00 6,0 3,1 - - 31 17 52 28 WSW 1006,5 24 0,0
15.01.2020 13:00:00 5,8 3,1 - - 28 15 - - WSW 1005,7 30 0,0
15.01.2020 12:00:00 4,4 2,3 - - 13 7 - - W 1004,9 5 0,8
15.01.2020 11:00:00 4,3 2,7 - - 11 6 - - WSW 1004,4 18 0,0
15.01.2020 10:00:00 4,8 3,1 - - 13 7 - - W 1002,7 12 0,0
15.01.2020 09:00:00 4,5 2,4 7,0 7,5 22 12 - - SW 1001,5 16 0,0
15.01.2020 08:00:00 4,3 3,0 - - 21 11 - - SW 1000,2 15 0,0
15.01.2020 07:00:00 3,9 2,7 - - 13 7 - - SW 999,7 17 0,0
15.01.2020 06:00:00 4,2 2,4 - - 22 12 - - WSW 999,0 24 0,0
15.01.2020 05:00:00 4,0 2,7 - - 15 8 - - SW 998,2 16 0,0

tt = temperature
td = dewpoint
tt -20cm = temperature -20cm
tt -100cm = temperature -100cm
ff = wind speed
fx = gusts
dd = wind direction
ppp = reduced air pressure
vv = visibility
rr = precipitation

Next stations